Location: Cisewo
(53.3833°N, 14.9000°E)
Time: 06:31:31
(UTC+00:00)

BEESAT 3 - Pass Details

Date: 26 September 2021
Orbit: 481 x 510 km, 64.9° (Epoch: 24 October)

Event Time Altitude Azimuth Distance (km) Brightness Sun altitude
Rises 17:17:45 0° 286° (WNW) 2,594 ? -5.1°
Reaches altitude 10° 17:20:34 10° 308° (NW) 1,718 ? -5.5°
Maximum altitude 17:23:04 16° 349° (N) 1,367 ? -5.9°
Drops below altitude 10° 17:25:36 10° 30° (NNE) 1,731 ? -6.3°
Enters shadow 17:28:22 - 52° (NE) 2,597 ? -6.7°
